Theta_e
291 290 289 290 290 290 289 288 285 281 283 287 287 290 290 290 290 290 289 291 293 293 294 294 294 295 295 296 296 297 297 297 298 299 300 300 301 302
290 289 289 289 289 289 289 288 287 285 282 286 287 288 289 289 290 289 289 291 291 292 293 293 293 293 293 294 294 295 295 296 297 298 299 299 300 300
289 289 288 289 288 288 288 287 286 286 283 285 287 288 287 287 288 289 290 289 289 291 291 291 291 291 292 293 293 294 294 295 296 297 297 298 299 299
288 288 287 287 287 287 286 286 285 286 284 283 285 286 286 288 288 287 288 288 287 288 290 290 291 291 291 292 292 293 293 293 294 295 295 296 297 297
288 287 287 286 285 286 286 286 286 286 286 285 284 287 288 287 287 287 286 286 287 288 290 290 290 291 291 291 291 292 292 292 292 292 293 293 294 295
288 288 287 286 285 286 286 286 286 285 285 285 285 286 286 287 286 284 283 285 285 286 288 288 289 289 290 290 290 290 290 290 290 291 291 291 292 293
288 287 287 287 287 287 286 285 285 284 285 285 284 285 284 284 282 283 283 284 285 285 286 286 287 287 288 289 288 288 289 289 290 290 291 291 291 292
286 286 286 287 286 287 287 287 286 284 284 284 283 282 281 282 283 283 282 282 279 286 284 283 286 285 286 287 288 288 289 289 289 290 290 291 291 291
286 285 285 285 286 285 286 287 288 288 288 285 282 281 281 283 283 283 282 281 281 284 283 281 285 284 286 286 287 288 289 289 289 290 290 290 291 291
286 286 285 285 285 285 285 286 286 285 285 284 283 283 285 285 285 283 282 282 283 284 284 279 283 282 285 286 287 288 288 289 289 290 290 291 291 291
286 286 285 285 286 287 285 284 283 283 285 285 286 287 287 286 285 282 281 279 278 280 283 281 282 282 283 283 286 288 288 289 289 290 290 291 291 291
285 285 286 285 286 287 284 283 281 281 282 283 284 283 284 283 285 283 282 278 278 277 282 279 280 280 278 283 286 286 287 288 289 290 291 291 291 289
283 283 284 286 286 286 285 282 281 283 283 282 281 281 282 282 283 283 282 280 278 277 281 281 279 279 279 279 283 285 286 287 288 289 290 290 291 290
282 283 284 285 285 284 283 283 283 284 281 279 279 279 280 281 281 282 281 281 281 279 281 280 278 279 278 278 278 284 285 287 288 287 287 290 292 292
284 285 285 284 283 281 281 282 282 280 279 278 278 279 280 281 280 280 281 282 281 281 282 282 281 281 280 279 279 282 283 285 287 287 287 287 286 287
285 284 283 282 281 281 280 280 280 279 278 278 278 279 280 280 279 281 279 278 278 280 283 283 283 282 281 282 282 280 284 282 287 287 287 287 288 288
283 281 279 278 278 278 278 278 279 279 278 278 278 277 278 278 278 279 279 279 277 277 278 282 284 285 285 283 281 284 285 285 286 286 285 285 287 288
279 277 277 277 276 276 276 277 277 278 278 277 277 277 277 276 277 279 279 277 277 277 278 281 282 282 283 285 288 285 285 284 285 286 287 284 285 287
276 276 276 276 276 276 276 276 277 278 278 277 277 277 277 277 277 277 277 278 278 279 280 282 282 281 278 277 284 289 284 285 285 285 286 285 284 286
276 276 275 276 276 276 276 276 277 277 277 277 277 277 276 276 276 277 277 277 278 279 280 282 282 282 279 279 280 283 286 285 285 284 285 286 288 290
276 275 276 276 276 276 276 277 276 276 277 276 276 276 277 277 277 277 277 279 280 280 279 280 283 286 284 284 281 283 286 287 287 285 285 284 284 285
275 275 276 276 276 276 276 276 276 276 276 276 276 277 277 278 277 277 278 278 279 280 280 283 284 284 283 281 281 281 284 286 288 288 289 288 284 281
275 276 276 276 276 276 276 276 276 276 276 276 276 277 277 277 278 279 280 281 281 281 282 281 283 284 283 283 282 282 283 284 285 285 287 290 289 289
Wind_Speed
3 5 5 5 6 7 7 8 11 14 13 11 8 11 11 12 16 17 18 24 26 29 31 31 31 33 34 35 34 34 35 34 35 35 35 36 37 36
4 6 6 6 7 7 8 9 9 12 15 11 12 14 13 13 17 18 18 24 26 29 31 32 33 32 32 33 34 34 34 34 34 35 35 36 36 36
5 6 7 8 7 8 8 9 10 11 15 13 13 14 17 17 16 15 15 17 16 28 28 30 31 31 32 33 34 34 33 34 34 35 36 36 37 36
7 7 8 7 10 10 9 11 11 13 13 21 16 14 17 17 16 17 14 14 15 22 29 30 31 32 32 32 32 32 33 34 34 35 35 35 36 36
7 8 9 10 10 9 11 11 11 11 13 13 16 13 14 12 15 16 15 15 13 24 27 29 30 32 32 32 33 33 34 34 34 34 34 34 34 34
8 9 10 11 11 12 12 14 13 12 14 13 14 15 11 14 14 13 13 12 13 14 22 24 28 28 30 31 33 33 33 32 32 33 33 34 33 34
10 10 10 12 16 16 11 13 15 13 12 12 13 11 14 13 14 13 13 13 14 13 15 13 13 13 16 23 25 29 29 30 31 32 32 33 34 34
10 11 11 14 14 18 20 21 19 15 15 13 12 15 18 15 14 13 14 12 16 12 12 16 13 15 14 13 26 31 32 32 32 32 32 33 34 35
11 11 11 10 14 14 17 23 21 22 21 18 17 17 17 17 15 16 16 16 15 14 15 17 13 15 13 15 29 30 31 32 31 31 32 32 33 34
11 13 13 14 13 15 17 14 14 17 16 13 16 17 16 15 16 16 16 17 15 14 13 16 13 14 14 14 30 30 28 27 27 29 31 32 33 33
11 12 12 14 16 23 16 14 18 17 15 21 23 27 25 27 21 11 12 12 14 14 13 12 11 14 15 16 13 19 23 30 30 29 30 30 30 32
12 13 16 15 21 23 17 17 16 17 15 16 15 17 18 16 20 13 10 11 12 13 9 10 12 11 9 9 9 14 12 22 27 29 28 28 29 15
11 11 10 20 23 24 24 16 16 18 19 15 13 12 12 12 11 10 11 10 12 12 17 12 10 11 9 14 12 12 13 13 13 17 25 28 29 25
12 11 12 22 24 25 20 19 22 20 11 11 11 11 11 11 10 11 14 13 12 16 18 16 11 12 13 14 16 13 13 14 12 13 12 19 28 31
10 15 23 21 22 17 17 20 17 9 10 10 10 10 10 11 13 13 13 14 15 16 13 16 13 13 12 14 16 16 17 12 13 12 14 13 13 12
14 12 16 17 17 15 13 10 9 9 10 9 10 10 11 10 11 10 11 11 11 13 12 13 12 14 14 13 13 16 14 11 13 13 14 14 11 10
16 11 10 9 9 9 9 10 10 10 10 10 10 11 11 11 11 10 10 10 11 12 13 11 12 14 12 16 14 13 13 13 12 14 15 13 11 8
11 9 9 9 10 10 10 11 11 12 10 10 10 10 11 11 11 11 10 9 11 12 13 12 12 12 11 11 14 10 11 11 12 14 13 12 11 9
7 8 8 9 10 10 10 10 11 10 12 10 10 11 10 10 14 11 10 10 11 11 12 11 11 10 12 14 11 9 10 12 12 11 11 12 11 10
7 8 9 9 10 10 10 10 11 11 10 10 10 10 10 10 11 10 10 11 11 12 12 10 10 9 10 12 13 15 18 10 10 10 12 10 9 12
8 9 9 9 10 10 10 10 11 11 11 11 10 10 10 10 10 10 11 18 17 10 11 11 11 23 10 10 8 11 11 13 13 11 11 10 10 8
9 9 10 10 10 10 10 10 10 11 11 10 10 10 10 10 10 11 11 11 11 10 11 10 11 9 9 9 11 14 12 11 12 16 10 16 8 7
10 10 10 10 10 10 10 10 11 11 11 10 10 10 10 11 10 10 11 10 10 10 9 10 9 8 9 9 13 11 14 13 10 11 9 17 16 15
Wind_Direction
284 284 283 289 286 287 288 289 295 301 299 304 293 300 308 303 301 300 297 294 298 297 294 294 295 292 296 294 293 291 285 282 281 282 278 277 277 277
299 294 293 293 294 290 288 288 284 288 290 299 297 305 304 303 298 291 294 297 293 295 292 293 294 295 294 293 291 290 288 287 284 282 279 276 276 273
291 291 296 299 293 295 293 289 286 286 287 293 298 305 303 296 297 302 305 298 287 294 294 294 295 294 291 289 289 288 288 286 284 281 280 278 274 272
295 294 297 298 295 296 293 292 289 290 291 295 302 300 296 300 308 291 291 296 295 297 296 296 295 293 291 290 288 286 282 280 280 280 279 280 279 273
290 294 297 299 297 300 298 295 292 290 294 292 292 296 295 306 296 304 297 296 298 300 297 297 296 292 291 290 287 287 287 288 286 281 277 276 275 274
292 289 296 297 295 299 296 297 297 301 289 292 292 297 300 306 297 304 304 303 301 302 292 291 290 290 287 286 288 288 287 285 282 279 277 274 271 271
293 292 292 295 295 292 298 296 301 300 295 291 289 301 304 303 309 310 301 304 299 298 294 293 294 295 285 286 283 284 284 282 280 277 274 272 271 267
296 298 297 297 295 298 300 300 296 291 286 290 303 296 301 306 306 309 302 302 303 294 304 295 294 292 287 284 285 289 289 287 284 280 276 272 268 267
298 301 303 302 303 303 300 294 294 295 293 292 294 297 300 305 305 295 305 298 296 298 298 291 294 289 292 287 289 290 289 287 284 282 279 276 271 267
300 303 305 308 305 304 302 303 298 289 298 302 296 296 293 294 295 302 301 296 289 288 296 291 301 291 294 293 294 292 289 286 286 285 283 279 274 270
303 301 304 300 302 306 311 301 303 304 303 303 298 292 293 299 297 297 291 298 294 298 305 285 298 303 297 290 285 291 294 294 290 286 285 282 275 271
308 307 306 307 312 311 309 312 306 308 313 296 295 305 300 296 297 289 292 292 294 300 295 305 306 314 305 285 296 295 289 291 293 293 293 290 282 273
308 310 311 317 310 318 314 308 305 306 306 305 306 303 304 301 304 304 296 287 289 278 285 303 301 298 278 298 297 293 294 290 293 293 291 288 285 279
310 312 312 311 317 313 312 309 306 312 304 304 304 302 302 302 299 299 293 282 270 272 286 285 277 285 286 287 291 295 300 295 290 290 290 282 282 278
308 302 311 313 315 312 315 312 311 304 304 304 297 297 300 300 296 290 289 290 284 278 275 276 274 279 276 279 284 293 300 298 295 291 303 301 298 286
314 310 313 312 309 307 311 308 307 307 304 299 298 300 296 297 295 297 298 301 295 296 292 281 276 277 281 278 286 290 290 292 304 305 306 304 302 300
324 313 311 314 313 313 313 313 312 312 310 306 302 301 300 302 300 302 296 299 295 300 304 303 294 281 279 279 285 281 292 301 303 310 311 310 310 299
313 309 313 313 313 317 317 315 313 310 308 308 299 297 301 302 299 302 301 295 296 301 303 305 307 311 306 290 259 280 295 296 311 311 315 318 317 321
313 317 312 312 313 313 310 307 304 306 306 297 298 297 294 296 306 298 299 297 299 297 300 301 308 309 314 311 308 288 303 307 311 315 321 325 313 314
315 317 312 312 311 309 305 303 302 302 303 300 297 298 296 294 298 296 297 298 297 299 303 305 304 311 304 302 301 297 296 297 316 315 320 322 310 298
320 315 311 310 307 302 299 298 298 297 299 301 296 293 295 295 292 292 293 300 304 300 302 306 307 310 301 289 284 297 309 311 318 320 318 322 329 328
317 312 311 307 301 298 297 297 297 297 298 297 295 295 294 293 292 294 294 297 299 297 297 296 308 310 311 309 304 307 310 323 329 327 326 347 339 333
311 309 304 298 296 296 296 296 294 294 294 294 293 293 294 294 293 290 291 293 295 298 310 308 311 316 309 308 311 312 318 328 335 337 338 347 345 347